Notices

What's New in latest Release from April 7th, 2021:

- Updated Glossary, including Speed of Maximum Gust, and Total Hourly Precipitation

- Updated national and regional climate services offices contacts and prices information

- Addition of station inventory lists for 1981-2010, 1971-2000, and 1961-1990 Normals.

If you haven't already, please take our survey and provide feedback about our website: https://eccc.sondage-survey.ca/f/LanguageSelection.aspx?s=442ca660-fcf1-47c0-95a9-59707d6fd709

Hourly Data Report for April 12, 2018

MIRAMICHI RCS
NEW BRUNSWICK
Current Station Operator: ECCC - MSC

47°00'34.000" N
65°27'54.000" W
33.00 m
8100989
71744
ACQ

Download Data

Hourly Data (April 2018)
Hourly Data Report for April 12, 2018
TIME
LST
Temp Definition
°C
Dew Point Definition
°C
Rel Hum Definition
%
Precip. Amount Definition
mm

Wind Dir Definition
10's deg

Wind Spd Definition
km/h
Visibility Definition
km
Stn Press Definition
kPa
Hmdx Definition


Wind Chill Definition


Weather Definition


00:00 -0.8 -7.2 62 0.0 17 9   101.34   -4 LegendNANA
01:00 -0.9 -6.5 66 0.0 16 9   101.32   -4 LegendNANA
02:00 -0.2 -6.7 61 0.0 18 14   101.27   -4 LegendNANA
03:00 -0.6 -6.4 65 0.0 18 9   101.24   -4 LegendNANA
04:00 -1.3 -6.5 68 0.0 25 2   101.22   -2 LegendNANA
05:00 -1.7 -6.2 72 0.0 25 2   101.22   -2 LegendNANA
06:00 -2.8 -6.6 75 0.0 19 2   101.24   -4 LegendNANA
07:00 -1.8 -5.6 76 0.0 22 6   101.27   -4 LegendNANA
08:00 1.0 -4.7 66 0.0 23 8   101.30     LegendNANA
09:00 3.0 -3.1 64 0.0 23 11   101.30     LegendNANA
10:00 6.0 -4.8 46 0.0 20 4   101.27     LegendNANA
11:00 6.8 -6.8 37 0.0 25 9   101.26     LegendNANA
12:00 6.5 -6.0 40 0.0 23 14   101.23     LegendNANA
13:00 6.7 -5.7 41 0.0 22 16   101.16     LegendNANA
14:00 7.7 -5.6 38 0.0 23 17   101.12     LegendNANA
15:00 7.6 -5.2 40 0.0 24 16   101.07     LegendNANA
16:00 7.7 -5.6 38 0.0 21 21   101.03     LegendNANA
17:00 6.8 -4.6 44 0.0 23 19   101.02     LegendNANA
18:00 7.0 -4.7 43 0.0 21 18   101.01     LegendNANA
19:00 6.0 -4.2 48 0.0 20 18   101.04     LegendNANA
20:00 4.4 -3.7 56 0.0 19 13   101.04     LegendNANA
21:00 3.5 -2.9 63 0.0 18 13   101.05     LegendNANA
22:00 3.4 -1.8 69 0.0 19 16   101.04     LegendNANA
23:00 3.0 -1.3 73 0.0 20 18   101.04     LegendNANA

Notes on Data Quality.

Legend

  • E = Estimated
  • M = Missing
  • NA = Not Available*
  • [empty] = Indicates an unobserved value
Date modified: